Regional Weather Roundup
Issued by NWS Cleveland, OH

Home | Current Version | Previous Version | Text Only | Print | Product List | Glossary Off
Versions: 1 2 3 4 5 6 7 8 9 10 11 12 13 14 15 16 17 18 19 20 21 22 23 24 25 26 27 28 29 30 31 32 33 34 35 36 37 38 39 40 41 42 43 44 45 46 47 48 49 50

000
ASUS41 KCLE 281012
RWRCLE
OHIO REGIONAL WEATHER ROUNDUP
NATIONAL WEATHER SERVICE WILMINGTON, OH
600 AM EDT WED JUN 28 2017

NOTE: "FAIR" INDICATES FEW OR NO CLOUDS BELOW 12,000 FEET WITH NO
SIGNIFICANT WEATHER AND/OR OBSTRUCTIONS TO VISIBILITY.

OHZ001>008-015>018-024>027-034-035-043-044-281100-
   NORTHWEST OHIO

CITY           SKY/WX    TMP DP  RH WIND       PRES   REMARKS
DEFIANCE       FAIR      49  47  93 CALM      30.09F
FINDLAY        FAIR      54  46  74 S3        30.10F
TOLEDO EXPRESS FAIR      48  48 100 CALM      30.09F
TOLEDO EXEC    FAIR      53  50  89 CALM      30.10F
LIMA           FAIR      53  47  79 S8        30.11F
$$

OHZ009>014-019>023-028>033-038-089-281100-
   NORTHEAST OHIO

CITY           SKY/WX    TMP DP  RH WIND       PRES   REMARKS
CLE-HOPKINS    FAIR      58  46  64 SW7       30.14R
CLE-LAKEFRONT  FAIR      59  46  62 SW10      30.11R
CUY CO. ARPT   NOT AVBL
LORAIN-ELYRIA  FAIR      53  43  68 SW7       30.13R
ASHTABULA      FAIR      54  47  77 SW3       30.12R
AKRON-CANTON   FAIR      53  44  71 S3        30.15R
WOOSTER        FAIR      51  46  83 SW3       30.15R
MANSFIELD      FAIR      54  44  69 S6        30.14S
YOUNGSTOWN     FAIR      51  44  77 SW6       30.14R
$$

OHZ042-051>053-060>062-070>072-077>081-281100-
  SOUTHWEST OHIO

CITY           SKY/WX    TMP DP  RH WIND       PRES   REMARKS
CINC-COVINGTON FAIR      56  51  84 S5        30.11F
CINC-LUNKEN    FAIR      51  51 100 CALM      30.13F FOG
HAMILTON       FAIR      50  50 100 CALM      30.13F
DAYTON         FAIR      53  47  79 SE6       30.12F
WRIGHT-PAT AFB FAIR      53  51  94 CALM      30.12F
DAYTON GENERAL FAIR      56  48  74 SE3       30.11F
WILMINGTON     FAIR      52  50  93 SE5       30.13F
$$

OHZ036-037-039>041-045>050-054>059-063>069-073>076-082>088-281100-
  CENTRAL AND SOUTHEAST OHIO

CITY           SKY/WX    TMP DP  RH WIND       PRES   REMARKS
COLUMBUS       FAIR      52  50  93 E3        30.15R
OSU AIRPORT    FAIR      51  49  92 CALM      30.14S
BOLTON FIELD   FAIR      50  48  93 CALM      30.15S
RICKENBACK AFB FAIR      51  49  95 CALM      30.15R
NEWARK         FAIR      46  45  96 CALM      30.16R
MARION         FAIR      53  45  74 S3        30.13F
LANCASTER      FAIR      47  47 100 CALM      30.16R
ZANESVILLE     FAIR      49  46  90 CALM      30.16R
NEW PHILLY     FAIR      49  48  97 SE3       30.17R
$$




USA.gov is the U.S. government's official web portal to all federal, state and local government web resources and services.